This is the latest recevied weather packets stored in our database for station/object N6SPP. If no packets are shown the sender has not sent any weather packets the latest 10 day(s).
| Time | Temp. | Humidity | Pressure | Rain* | Wind** | Luminosity | Snow |
|---|---|---|---|---|---|---|---|
| 1777779221 | 12.78° C | 80% | 1013.2 hPa | 0 mm | - | 0 W/m² | - |
| 1777778918 | 12.78° C | 80% | 1013.4 hPa | 0 mm | - | 0 W/m² | - |
| 1777778617 | 12.78° C | 79% | 1013.1 hPa | 0 mm | - | 0 W/m² | - |
| 1777778314 | 13.33° C | 79% | 1013 hPa | 0 mm | - | 0 W/m² | - |
| 1777778012 | 13.33° C | 79% | 1013.1 hPa | 0 mm | - | 0 W/m² | - |
| 1777777708 | 13.33° C | 78% | 1012.9 hPa | 0 mm | - | 1 W/m² | - |
| 1777777405 | 13.33° C | 78% | 1013.1 hPa | 0 mm | - | 1 W/m² | - |
| 1777777101 | 13.33° C | 77% | 1013.2 hPa | 0 mm | - | 3 W/m² | - |
| 1777776799 | 13.33° C | 76% | 1013.1 hPa | 0 mm | - | 5 W/m² | - |
| 1777776495 | 13.33° C | 76% | 1013.2 hPa | 0 mm | - | 7 W/m² | - |
| 1777776192 | 13.89° C | 75% | 1012.9 hPa | 0 mm | - | 11 W/m² | - |
| 1777775889 | 13.89° C | 74% | 1012.7 hPa | 0 mm | - | 16 W/m² | - |
| 1777775586 | 13.89° C | 73% | 1012.8 hPa | 0 mm | - | 20 W/m² | - |
| 1777775283 | 14.44° C | 73% | 1012.8 hPa | 0 mm | - | 24 W/m² | - |
| 1777774982 | 14.44° C | 73% | 1012.9 hPa | 0 mm | - | 29 W/m² | - |
| 1777774679 | 14.44° C | 72% | 1013 hPa | 0 mm | - | 34 W/m² | - |
| 1777774375 | 14.44° C | 72% | 1012.9 hPa | 0 mm | - | 40 W/m² | - |
| 1777774074 | 15° C | 71% | 1012.8 hPa | 0 mm | - | 48 W/m² | - |
| 1777773771 | 15° C | 71% | 1013.1 hPa | 0 mm | - | 58 W/m² | - |
| 1777773467 | 15.56° C | 70% | 1013 hPa | 0 mm | - | 65 W/m² | - |
| 1777773164 | 15.56° C | 70% | 1013 hPa | 0 mm | - | 69 W/m² | - |
| 1777772860 | 15.56° C | 69% | 1012.9 hPa | 0 mm | - | 74 W/m² | - |
| 1777772558 | 15.56° C | 69% | 1012.8 hPa | 0 mm | - | 82 W/m² | - |
| 1777772255 | 15.56° C | 69% | 1013 hPa | 0 mm | - | 96 W/m² | - |
| 1777771953 | 16.11° C | 68% | 1012.7 hPa | 0 mm | - | 107 W/m² | - |
* Rain latest hour (hover to see other rain measurements)
** Current wind speed in m/s (hover to see current wind gust speed)